www.pogodaiklimat.ru

ПОГОДА в Кини, NH

  • Прогноз погоды в Кини
  • Монитор погоды в Кини
  • Климат в Кини

АРХИВ ПОГОДЫ в Кини

Время (UTC), дата Ветер
(напр.,м/с)
 
Видим.   Явления Облачность Т
(С)
Тd
(С)
f
(%)
Тe
(С)
Тes
(С)
Комфортность

P
(гПа)

Po
(гПа)
Тmin
(С)
Tmax
(С)
R
(мм)
SD
(см)
05:20 24.05 Ю  400 м  туман  8/8 90 м  +12.0  +12.0  100  +10  +10      987.7         
05:40 24.05   1 км  дымка  8/8 90 м  +12.0  +12.0  100  +11  +11      987.3         
05:43 24.05   2 км  дымка  8/8 90 м  +12.0  +11.0  94  +11  +11      987.3         
05:46 24.05   6 км  дымка  8/8 90 м  +12.0  +12.0  100  +11  +11      987.3         
05:56 24.05   14 км    8/8 90 м  +11.7  +11.7  100  +11  +11    1005.3  987.3         
06:09 24.05 Ю  10 км  дымка  5/5 90 м  +12.0  +12.0  100  +11  +11      987.0         
06:13 24.05 Ю  2 км  дымка  2/2 90 м  +11.0  +11.0  100  +9  +9      987.0         
06:15 24.05 Ю  1 км  дымка  ?/?  +11.0  +11.0  100  +9  +9      987.0         
06:21 24.05 ЮЗ  400 м  туман  ?/?  +10.0  +10.0  100  +8  +8      986.7         
06:25 24.05 Ю  800 м  туман  ясно  +10.0  +10.0  100  +7  +7      986.7         
06:27 24.05 ЮЗ  2 км  дымка  2/0 3000 м
[средняя] 
+11.0  +11.0  100  +9  +9      986.7         
06:30 24.05 ЮЗ  3 км  дымка  2/0 3000 м
[средняя] 
+11.0  +11.0  100  +9  +9      986.7         
06:37 24.05 ЮЗ  16 км    8/0 3000 м
[средняя] 
+12.0  +12.0  100  +10  +10      986.7         
06:56 24.05 Ю  16 км    10/0 2850 м
[средняя] 
+11.1  +11.1  100  +9  +9    1004.6  986.7         
07:28 24.05   3 км  дымка  ясно  +11.0  +11.0  100  +10  +10      987.0         
07:36 24.05 Ю  1 км  дымка  ?/?  +11.0  +11.0  100  +9  +9      986.7         
07:44 24.05 Ю  800 м  туман  ?/?  +11.0  +11.0  100  +8  +8      986.3         
07:48 24.05 Ю  2 км  дымка  2/2 30 м  +11.0  +11.0  100  +8  +8      986.3         
07:51 24.05 ЮЗ  5 км  дымка  2/2 30 м  +11.0  +11.0  100  +9  +9      986.3         
07:56 24.05 Ю  16 км    2/2 30 м  +11.1  +11.1  100  +10  +10    1004.6  986.7         
08:25 24.05 ЮЗ  2 км  дымка  ясно  +11.0  +11.0  100  +9  +9      986.7         
08:27 24.05 Ю  1 км  дымка  ясно  +10.0  +10.0  100  +9  +9      986.7         
08:34 24.05 Ю  800 м  туман  ясно  +10.0  +10.0  100  +9  +9      987.0         
08:37 24.05 Ю  2 км  дымка  2/2 1500 м  +11.0  +11.0  100  +9  +9      986.7         
08:39 24.05 ЮЗ  5 км  дымка  2/2 1500 м  +11.0  +11.0  100  +9  +9      986.7         
08:56 24.05 Ю  16 км    ясно  +10.6  +10.6  100  +8  +8    1005.2  987.0         
09:56 24.05 ЮЗ  16 км    10/10 1260 м  +12.8  +11.7  93  +12  +12    1006.1  988.0         
10:56 24.05 нст  3
{9} 
16 км    10/8 1230 м
[средняя] 
+15.0  +11.7  81  +14  +14    1007.0  989.0  +10.0  +15.6     
11:48 24.05 нст  16 км    10/10 870 м  +15.0  +12.0  82  +14  +14      989.7         
11:56 24.05 СЗ  16 км    10/10 870 м  +15.0  +11.7  81  +14  +14    1007.9  989.7         
12:56 24.05 СЗ  8
{13} 
16 км    10/10 870 м  +17.2  +10.6  65  +16  +16    1008.6  990.3         
13:04 24.05 С  9
{13} 
16 км    10/10 930 м  +17.0  +11.0  68  +15  +15      990.7         
13:56 24.05 С  9
{13} 
16 км    8/8 1110 м  +18.3  +9.4  56  +17  +17    1009.6  991.3         
14:56 24.05 С  10
{13} 
16 км    8/8 1320 м  +19.4  +10.0  55  +19  +19    1009.9  991.7         
15:56 24.05 С  9
{13} 
16 км    8/8 1500 м  +19.4  +8.9  51  +19  +19    1010.9  992.7         
16:56 24.05 С  8
{11} 
16 км    10/10 1410 м  +18.9  +9.4  54  +19  +19    1011.9  993.6  +15.0  +20.0     
17:56 24.05 СЗ  16 км    10/10 1350 м  +18.9  +9.4  54  +19  +19    1013.3  995.0         
18:56 24.05 С  7
{10} 
16 км    10/10 1350 м  +17.8  +9.4  58  +17  +17    1014.3  996.0         
19:56 24.05 С  9
{11} 
16 км    10/10 1470 м  +17.8  +8.9  56  +17  +17    1015.4  997.3         
20:56 24.05 С  16 км    10/10 1410 м  +17.8  +8.9  56  +17  +17    1016.2  998.0         
21:56 24.05 С  16 км    10/10 1170 м  +16.7  +8.9  60  +15  +15    1017.7  999.6         
22:56 24.05 С  16 км    10/10 1440 м  +15.6  +8.9  64  +14  +14    1019.0  1000.6  +15.6  +18.9     
23:56 24.05 С  16 км    10/10 1650 м  +15.0  +8.9  67  +14  +14    1019.7  1001.3         
00:56 25.05 С  16 км    10/10 1650 м  +15.0  +8.9  67  +14  +14    1020.2  1002.0         
01:56 25.05   16 км    5/5 1800 м  +12.2  +9.4  83  +12  +12    1020.7  1002.3         
02:56 25.05   16 км    ясно  +10.0  +8.9  93  +9  +9    1020.9  1002.6         
03:56 25.05   11 км    ясно  +8.3  +8.3  100  +7  +7    1021.1  1002.6         
04:56 25.05   10 км  дымка  ясно  +7.8  +7.8  100  +7  +7    1021.5  1003.0  +7.8  +15.6     

 

Местоположение метеостанции Dillant-Hopkins Airport: широта 42.9000 долгота -72.2667 высота над уровнем моря 149 м.

В архиве по умолчанию представлена погода в Кини за последние 1-2 суток. Обновление информации о фактической погоде в базе происходит ежечасно! Архивные данные за месяц целиком и за предыдущие месяцы Вы можете получить, выбрав интересующий диапазон дат из раскрывающегося списка и нажав кнопку "Ввод!".

Внимание! Архив погоды МЕТАР в базе сайта хранится не более 60 дней. Нет смысла пытаться выбрать более раннюю дату.

Внимание! Время в таблицах - всемирное. Для получения местного времени необходимо прибавить поправку, которая в Кини равна -5 ч.

Ветер - указаны скорость ветра в м/с и направление, откуда дует ветер: С - северный, СВ - северо-восточный, В - восточный, ЮВ - юго-восточный, Ю - южный, ЮЗ - юго-западный, З - западный, СЗ - северо-западный.
Видимость - горизонтальная дальность видимости в метрах или километрах. При видимости от 1 до 10 км при отсутствии осадков обычно наблюдается дымка, при ухудшении видимости до 1 км и менее - туман. В сухую погоду видимость может ухудшаться дымом, пылью или мглою.
Атмосферные явления - указаны явления, наблюдавшиеся в указанный момент времени.
Облачность - указаны через наклонную черту верхняя и нижняя облачность в баллах и высота нижней границы облаков в метрах. Внимание: облачность, как и прочие метеорологические величины в США измеряются автоматическими метеостанциями. Указанные значения в баллах носят условный характер и показывают процент времени, в течение которого, в среднем, лазерный луч высотомера отражался от облаков обратно.
T - Температура воздуха - температура, измеренная на высоте 2 м над землей.
Td - Температура точки росы - температура, при понижении до которой содержащийся в воздухе водяной пар достигнет насыщения.
f - Относительная влажность воздуха - влажноcть воздуха, измеренная на высоте 2 м над землей.
Te - Эффективная температура - температура, которую ощущает одетый по сезону человек в тени. Характеристика душности погоды. При расчете учитывается влияние влажности воздуха и скорости ветра на теплоощущения человека.
Tes - Эффективная температура на солнце - температура, которую ощущает человек, с поправкой на солнечный нагрев. Характеристика знойности погоды. Зависит от высоты солнца над горизонтом, облачности и скорости ветра. Ночью, в пасмурную погоду, а также при ветре 12 м/с и более поправка равна нулю.
P - Атмосферное давление - приведенное к уровню моря атмосферное давление.
Po - Атмосферное давление - измеренное на уровне метеостанции атмосферное давление.
Tmin - Минимальная температура - минимум температуры воздуха на высоте 2 м над землей.
Tmax - Максимальная температура - максимум температуры воздуха на высоте 2 м над землей.
R - Количество осадков - Количество выпавших осадков за 3 или 6 часов, мм.
SD - Снежный покров - Высота снежного покрова, см.